Showing default

GONETS-M 24, 54151

Orbit data source: Space-Track

GONETS-M 24, 54151 is a payload satellite owned by Gonets (CIS) in LEO that was launched on Sat, 22 Oct 2022 UTC via a SOYUZ-2-1B launch vehicle from the Vostochny Cosmodrome (VOSTO). Payload-class satellites include a variety of spacecraft equipped with specific instruments for various scientific and technological missions. These include communications satellites like Starlink; space stations such as the ISS; scientific satellites like the Hubble; Earth observation satellites from companies like Planet Labs, Umbra, and HawkEye 360; GPS; miniature CubeSats for education and research; and military/defense satellites.

Loading next visibility...
Identifier
54151, 2022-139B
Orbit
LEO
Country
Flag of CISCIS
Related business
Manufacturer
Resehetnev ISS
Mission
Operational Commercial Communications
Bus & Motor
STRELA-3M, Unknown motor
Mass
280 kg wet, 280 kg dry
Launch date (UTC)
2022-10-22 (4 years ago)
Launch vehicle
SOYUZ-2-1B
Launch site
Vostochny Cosmodrome (VOSTO)
Object type
Payload
Rocket body
Debris
Shape & HBR
Cyl + 1 Ant, 3.5 m
Radar Cross Section
1.583 m², Large (>1 m²)

Expand to show TLE details & history
Last TLE update: 23 hours ago

TLE from 23 hours ago
0 GONETS-M 24
1 54151U 22139B   26172.50219429  .00000038  00000-0  20138-3 0  9991
2 54151  82.4990 344.6691 0016139 220.0932 139.8958 12.42891595166182
Epoch: 2026-06-21T12:03Z
TLE epoch observation values (Epoch: 2026-06-21T12:03:09.586Z)
Latitude
0.00001°
Longitude
-105.82239°
Altitude
1,506.797 km
Speed
7.107 km/s
True Right ascension
22h 58m 40s
True Declination
0° 00' 00"
Sunlit
Object was in daylight at epoch
Visualization orbit readout
Latitude
Unknown
Longitude
Unknown
Altitude
Unknown
Speed
Unknown
Apparent Right ascension
Unknown
Apparent Declination
Unknown
Sunlit
N/A
Visualization observer readout
Local Sidereal Time
21:35:44
Azimuth
Unknown
Elevation
Unknown
Doppler factor
Unknown
Orbital elements
Apogee altitude
1,504.422 km
Perigee altitude
1,479.019 km
Semi-major axis
7,869.857 km
Eccentricity
0.00161
Inclination
82.499°
RAAN
344.6691°
Arg. of periapsis
220.0932°
True anomaly
140.01475°
Mean anomaly
139.8958°
Eccentric anomaly
139.95529°
Mean motion
3.1088 °/min
Orbital period
115.8 mins
BSTAR
0.00020138
Loading maneuver chart data...
Computing Atmospheric mass density...
Loading historical data...
Loading historical data...
Loading historical data...
Loading historical data...
Loading historical data...
Loading historical data...
Loading historical data...
Other satellites on launch #139 in the year 2022 (2022-10-22 UTC)

Documentation

Showing up to 5 results
|